| time (UTC) | temp F | wind direction | speed knots | gust knots | rain 1hr in | rain 24hr in | rain mn in | humidity % | barometer mb |
| 20260509173212 | 52 | 169 | 1.7 | 5.2 | 0.00 | 0.33 | 0.33 | 97 | 1006.9 |
| 20260509172708 | 52 | 13 | 0.0 | 3.5 | 0.00 | 0.33 | 0.33 | 98 | 1006.8 |
| 20260509172205 | 51 | 180 | 1.7 | 5.2 | 0.00 | 0.33 | 0.33 | 98 | 1006.7 |
| 20260509171700 | 51 | 111 | 0.9 | 4.3 | 0.00 | 0.33 | 0.33 | 99 | 1006.6 |
| 20260509171157 | 51 | 127 | 1.7 | 1.7 | 0.00 | 0.33 | 0.33 | 99 | 1006.5 |
| 20260509170654 | 51 | 172 | 0.9 | 2.6 | 0.00 | 0.33 | 0.33 | 99 | 1006.8 |
| 20260509170150 | 51 | 75 | 1.7 | 1.7 | 0.00 | 0.33 | 0.33 | 99 | 1006.8 |
| 20260509165648 | 51 | 164 | 0.9 | 1.7 | 0.00 | 0.33 | 0.33 | 99 | 1006.7 |
| 20260509165144 | 51 | 119 | 0.9 | 5.2 | 0.00 | 0.33 | 0.33 | 99 | 1007.0 |
| 20260509164640 | 51 | 218 | 2.6 | 3.5 | 0.00 | 0.33 | 0.33 | 99 | 1006.9 |
| 20260509164136 | 51 | 132 | 0.9 | 1.7 | 0.00 | 0.33 | 0.33 | 99 | 1007.0 |
| 20260509163634 | 51 | 111 | 2.6 | 2.6 | 0.02 | 0.33 | 0.33 | 99 | 1006.8 |
| 20260509163129 | 51 | 88 | 1.7 | 1.7 | 0.02 | 0.33 | 0.33 | 99 | 1007.1 |
| 20260509162627 | 51 | 60 | 1.7 | 3.5 | 0.00 | 0.33 | 0.33 | 99 | 1007.1 |
| 20260509162123 | 51 | 193 | 1.7 | 2.6 | 0.02 | 0.33 | 0.33 | 99 | 1007.0 |
| 20260509161619 | 51 | 118 | 1.7 | 2.6 | 0.02 | 0.33 | 0.33 | 99 | 1007.1 |
| 20260509161114 | 51 | 262 | 1.7 | 2.6 | 0.00 | 0.32 | 0.32 | 99 | 1007.1 |
| 20260509160610 | 51 | 35 | 0.9 | 2.6 | 0.00 | 0.32 | 0.32 | 99 | 1007.2 |
| 20260509160105 | 51 | 284 | 2.6 | 4.3 | 0.00 | 0.32 | 0.32 | 99 | 1007.4 |
| 20260509155602 | 52 | 0 | 0.0 | 2.6 | 0.00 | 0.32 | 0.32 | 99 | 1007.5 |
| 20260509155058 | 51 | 135 | 0.0 | 4.3 | 0.00 | 0.32 | 0.32 | 99 | 1007.4 |
| 20260509154554 | 51 | 78 | 2.6 | 2.6 | 0.00 | 0.32 | 0.32 | 99 | 1007.6 |
| 20260509154052 | 51 | 106 | 1.7 | 4.3 | 0.00 | 0.32 | 0.32 | 99 | 1007.5 |
| 20260509153549 | 51 | 240 | 1.7 | 3.5 | 0.00 | 0.32 | 0.32 | 99 | 1007.6 |
| 20260509153046 | 51 | 96 | 0.9 | 1.7 | 0.00 | 0.32 | 0.32 | 99 | 1007.6 |
| 20260509152542 | 51 | 147 | 0.0 | 3.5 | 0.00 | 0.32 | 0.32 | 99 | 1007.5 |
| 20260509152039 | 51 | 18 | 1.7 | 2.6 | 0.02 | 0.32 | 0.32 | 99 | 1007.8 |
| 20260509151535 | 51 | 114 | 1.7 | 2.6 | 0.02 | 0.32 | 0.32 | 99 | 1007.9 |
| 20260509151033 | 51 | 143 | 0.0 | 3.5 | 0.00 | 0.32 | 0.32 | 99 | 1008.0 |
| 20260509150530 | 51 | 296 | 0.9 | 2.6 | 0.00 | 0.32 | 0.32 | 99 | 1007.8 |
| 20260509150029 | 51 | 6 | 0.9 | 2.6 | 0.02 | 0.32 | 0.32 | 99 | 1007.7 |
| 20260509145524 | 51 | 87 | 0.9 | 1.7 | 0.02 | 0.32 | 0.32 | 99 | 1007.7 |
| 20260509145019 | 50 | 23 | 0.0 | 1.7 | 0.05 | 0.32 | 0.32 | 99 | 1008.0 |
| 20260509144516 | 50 | 77 | 0.9 | 1.7 | 0.07 | 0.32 | 0.32 | 99 | 1007.9 |
| 20260509144013 | 50 | 127 | 1.7 | 3.5 | 0.02 | 0.31 | 0.31 | 99 | 1008.2 |
| 20260509143510 | 50 | 111 | 0.9 | 1.7 | 0.02 | 0.30 | 0.30 | 99 | 1008.2 |
| 20260509143008 | 50 | 68 | 0.9 | 2.6 | 0.05 | 0.30 | 0.30 | 99 | 1008.1 |
| 20260509142504 | 50 | 121 | 0.0 | 1.7 | 0.05 | 0.30 | 0.30 | 99 | 1008.1 |
| 20260509141959 | 50 | 127 | 0.9 | 1.7 | 0.02 | 0.29 | 0.29 | 99 | 1008.1 |
| 20260509141455 | 49 | 177 | 0.9 | 1.7 | 0.02 | 0.29 | 0.29 | 99 | 1008.1 |
| 20260509140953 | 49 | 202 | 0.0 | 1.7 | 0.02 | 0.29 | 0.29 | 99 | 1008.1 |
| 20260509140449 | 49 | 113 | 0.9 | 1.7 | 0.05 | 0.29 | 0.29 | 99 | 1008.3 |
| 20260509135947 | 49 | 124 | 0.0 | 1.7 | 0.05 | 0.28 | 0.28 | 99 | 1008.1 |
| 20260509135444 | 49 | 33 | 0.0 | 1.7 | 0.05 | 0.28 | 0.28 | 99 | 1008.3 |
| 20260509134941 | 49 | 347 | 0.9 | 1.7 | 0.05 | 0.28 | 0.28 | 99 | 1008.0 |
| 20260509134439 | 49 | 336 | 0.0 | 1.7 | 0.02 | 0.27 | 0.27 | 99 | 1008.1 |
| 20260509133937 | 49 | 272 | 0.9 | 2.6 | 0.02 | 0.27 | 0.27 | 99 | 1008.3 |
| 20260509133433 | 49 | 120 | 0.9 | 1.7 | 0.05 | 0.27 | 0.27 | 99 | 1008.1 |
| 20260509132931 | 49 | 208 | 1.7 | 3.5 | 0.05 | 0.26 | 0.26 | 99 | 1008.3 |
| 20260509132429 | 48 | 171 | 0.0 | 2.6 | 0.05 | 0.26 | 0.26 | 99 | 1008.1 |
| 20260509131925 | 48 | 237 | 2.6 | 4.3 | 0.05 | 0.26 | 0.26 | 99 | 1008.4 |
| 20260509131423 | 48 | 310 | 1.7 | 2.6 | 0.02 | 0.25 | 0.25 | 99 | 1008.4 |
| 20260509130919 | 48 | 267 | 1.7 | 2.6 | 0.02 | 0.25 | 0.25 | 99 | 1008.3 |
| 20260509130414 | 48 | 184 | 0.0 | 2.6 | 0.02 | 0.24 | 0.24 | 99 | 1008.4 |
| 20260509125912 | 48 | 128 | 2.6 | 2.6 | 0.05 | 0.24 | 0.24 | 99 | 1008.4 |
| 20260509125409 | 48 | 82 | 0.0 | 1.7 | 0.05 | 0.24 | 0.24 | 99 | 1008.4 |
| 20260509124904 | 47 | 343 | 0.0 | 1.7 | 0.05 | 0.23 | 0.23 | 99 | 1008.2 |
| 20260509124402 | 47 | 12 | 0.0 | 2.6 | 0.07 | 0.23 | 0.23 | 99 | 1008.4 |
| 20260509123859 | 47 | 127 | 2.6 | 2.6 | 0.09 | 0.22 | 0.22 | 99 | 1008.4 |
| 20260509123356 | 47 | 48 | 2.6 | 2.6 | 0.09 | 0.22 | 0.22 | 99 | 1008.4 |
| 20260509122852 | 47 | 34 | 2.6 | 2.6 | 0.14 | 0.21 | 0.21 | 99 | 1008.6 |
| 20260509122349 | 46 | 58 | 2.6 | 2.6 | 0.12 | 0.20 | 0.20 | 99 | 1008.6 |
| 20260509121846 | 46 | 29 | 1.7 | 3.5 | 0.07 | 0.18 | 0.18 | 99 | 1008.8 |
| 20260509121343 | 45 | 100 | 0.9 | 2.6 | 0.09 | 0.18 | 0.18 | 99 | 1008.9 |
| 20260509120841 | 45 | 38 | 1.7 | 1.7 | 0.09 | 0.17 | 0.17 | 99 | 1008.7 |
| 20260509120339 | 45 | 75 | 0.9 | 2.6 | 0.07 | 0.17 | 0.17 | 99 | 1008.8 |
| 20260509115837 | 44 | 77 | 0.9 | 1.7 | 0.05 | 0.16 | 0.16 | 99 | 1008.9 |
| 20260509115333 | 44 | 70 | 1.7 | 1.7 | 0.05 | 0.15 | 0.15 | 99 | 1008.7 |
| 20260509114831 | 44 | 72 | 1.7 | 2.6 | 0.05 | 0.15 | 0.15 | 99 | 1008.8 |
| 20260509114330 | 44 | 50 | 1.7 | 1.7 | 0.07 | 0.15 | 0.15 | 99 | 1009.0 |
| 20260509113829 | 43 | 38 | 1.7 | 2.6 | 0.05 | 0.14 | 0.14 | 99 | 1008.7 |
| 20260509113325 | 43 | 76 | 1.7 | 2.6 | 0.05 | 0.13 | 0.13 | 99 | 1008.8 |
| 20260509112822 | 43 | 73 | 2.6 | 2.6 | 0.05 | 0.13 | 0.13 | 99 | 1008.7 |
| 20260509112319 | 43 | 72 | 1.7 | 1.7 | 0.07 | 0.13 | 0.13 | 99 | 1008.9 |
| 20260509111816 | 43 | 89 | 1.7 | 1.7 | 0.07 | 0.12 | 0.12 | 99 | 1008.8 |
| 20260509111313 | 43 | 95 | 1.7 | 2.6 | 0.07 | 0.11 | 0.11 | 99 | 1008.7 |
| 20260509110811 | 43 | 83 | 1.7 | 2.6 | 0.07 | 0.11 | 0.11 | 99 | 1008.7 |
| 20260509110307 | 43 | 87 | 1.7 | 1.7 | 0.07 | 0.10 | 0.10 | 99 | 1008.4 |
| 20260509105805 | 42 | 39 | 0.9 | 1.7 | 0.07 | 0.09 | 0.09 | 99 | 1008.6 |
| 20260509105306 | 42 | 51 | 0.0 | 1.7 | 0.09 | 0.09 | 0.09 | 99 | 1008.4 |
| 20260509104759 | 42 | 81 | 1.7 | 2.6 | 0.09 | 0.08 | 0.08 | 99 | 1008.4 |
| 20260509104256 | 42 | 74 | 1.7 | 1.7 | 0.07 | 0.07 | 0.07 | 99 | 1008.5 |
| 20260509103754 | 42 | 74 | 1.7 | 1.7 | 0.07 | 0.07 | 0.07 | 99 | 1008.6 |
| 20260509103251 | 42 | 63 | 1.7 | 1.7 | 0.07 | 0.06 | 0.06 | 99 | 1008.7 |
| 20260509102749 | 42 | 49 | 1.7 | 2.6 | 0.07 | 0.06 | 0.06 | 99 | 1008.7 |
| 20260509102246 | 42 | 89 | 2.6 | 2.6 | 0.05 | 0.05 | 0.05 | 99 | 1008.7 |
| 20260509101743 | 42 | 92 | 0.9 | 1.7 | 0.05 | 0.04 | 0.04 | 99 | 1008.8 |
| 20260509101239 | 42 | 97 | 0.9 | 1.7 | 0.02 | 0.04 | 0.04 | 99 | 1008.7 |
| 20260509100736 | 42 | 87 | 1.7 | 1.7 | 0.02 | 0.04 | 0.04 | 99 | 1008.4 |
| 20260509100233 | 42 | 45 | 1.7 | 2.6 | 0.05 | 0.04 | 0.04 | 99 | 1008.4 |
| 20260509095730 | 42 | 62 | 1.7 | 2.6 | 0.02 | 0.03 | 0.03 | 99 | 1008.3 |
| 20260509095227 | 41 | 59 | 1.7 | 1.7 | 0.00 | 0.03 | 0.03 | 99 | 1008.6 |
| 20260509094724 | 41 | 84 | 1.7 | 1.7 | 0.00 | 0.03 | 0.03 | 99 | 1008.6 |
| 20260509094221 | 41 | 81 | 1.7 | 1.7 | 0.00 | 0.03 | 0.03 | 99 | 1008.3 |
| 20260509093719 | 41 | 56 | 2.6 | 2.6 | 0.00 | 0.03 | 0.03 | 99 | 1008.2 |
| 20260509093216 | 41 | 38 | 2.6 | 2.6 | 0.00 | 0.03 | 0.03 | 99 | 1008.2 |
| 20260509092714 | 41 | 82 | 1.7 | 1.7 | 0.00 | 0.03 | 0.03 | 99 | 1008.6 |
| 20260509092212 | 41 | 72 | 0.9 | 1.7 | 0.00 | 0.03 | 0.03 | 99 | 1008.6 |
| 20260509091710 | 41 | 73 | 1.7 | 1.7 | 0.00 | 0.03 | 0.03 | 99 | 1008.5 |
| 20260509091205 | 41 | 62 | 1.7 | 1.7 | 0.00 | 0.03 | 0.03 | 99 | 1008.6 |
| 20260509090704 | 41 | 75 | 1.7 | 2.6 | 0.02 | 0.03 | 0.03 | 99 | 1008.5 |
| 20260509090200 | 41 | 57 | 0.9 | 1.7 | 0.02 | 0.03 | 0.03 | 99 | 1008.5 |
| 20260509085658 | 41 | 73 | 1.7 | 2.6 | 0.02 | 0.02 | 0.02 | 99 | 1008.5 |
| 20260509085154 | 41 | 69 | 1.7 | 1.7 | 0.02 | 0.02 | 0.02 | 99 | 1008.8 |
| 20260509084652 | 41 | 53 | 1.7 | 1.7 | 0.00 | 0.02 | 0.02 | 99 | 1008.8 |
| 20260509084148 | 41 | 78 | 1.7 | 1.7 | 0.00 | 0.02 | 0.02 | 99 | 1008.9 |
| 20260509083646 | 41 | 78 | 1.7 | 2.6 | 0.00 | 0.02 | 0.02 | 99 | 1008.7 |
| 20260509083142 | 41 | 60 | 1.7 | 2.6 | 0.00 | 0.02 | 0.02 | 99 | 1008.5 |
| 20260509082640 | 41 | 86 | 1.7 | 1.7 | 0.00 | 0.02 | 0.02 | 99 | 1008.8 |
| 20260509082136 | 41 | 89 | 0.0 | 1.7 | 0.02 | 0.02 | 0.02 | 99 | 1009.0 |
| 20260509081633 | 41 | 86 | 1.7 | 1.7 | 0.02 | 0.02 | 0.02 | 99 | 1008.8 |
| 20260509081131 | 41 | 34 | 0.0 | 0.9 | 0.00 | 0.02 | 0.02 | 99 | 1008.9 |
| 20260509080629 | 41 | 57 | 1.7 | 1.7 | 0.00 | 0.02 | 0.02 | 99 | 1008.9 |
| 20260509080126 | 41 | 50 | 0.9 | 1.7 | 0.00 | 0.02 | 0.02 | 99 | 1009.3 |
| 20260509075624 | 41 | 55 | 1.7 | 1.7 | 0.00 | 0.02 | 0.02 | 98 | 1009.3 |
| 20260509075121 | 41 | 61 | 1.7 | 1.7 | 0.00 | 0.02 | 0.02 | 98 | 1009.3 |
| 20260509074618 | 41 | 62 | 1.7 | 1.7 | 0.00 | 0.02 | 0.02 | 98 | 1009.2 |
| 20260509074115 | 41 | 87 | 0.9 | 1.7 | 0.00 | 0.02 | 0.02 | 98 | 1009.0 |
| 20260509073611 | 41 | 54 | 1.7 | 1.7 | 0.00 | 0.02 | 0.02 | 98 | 1009.0 |
| 20260509073108 | 41 | 56 | 1.7 | 1.7 | 0.00 | 0.02 | 0.02 | 98 | 1009.2 |
| 20260509072605 | 41 | 84 | 1.7 | 2.6 | 0.00 | 0.02 | 0.02 | 98 | 1009.0 |
| 20260509072101 | 41 | 61 | 0.9 | 1.7 | 0.00 | 0.02 | 0.02 | 98 | 1008.9 |
| 20260509071558 | 41 | 57 | 1.7 | 2.6 | 0.00 | 0.02 | 0.02 | 97 | 1008.9 |
| 20260509071055 | 41 | 79 | 1.7 | 1.7 | 0.02 | 0.02 | 0.02 | 97 | 1008.8 |
| 20260509070553 | 41 | 73 | 1.7 | 1.7 | 0.02 | 0.02 | 0.02 | 97 | 1008.8 |
| 20260509070049 | 41 | 59 | 1.7 | 1.7 | 0.00 | 0.01 | 0.01 | 96 | 1009.0 |
| 20260509065544 | 41 | 52 | 1.7 | 1.7 | 0.00 | 0.01 | 0.01 | 96 | 1009.0 |
| 20260509065041 | 41 | 67 | 1.7 | 1.7 | 0.00 | 0.01 | 0.01 | 96 | 1009.0 |
| 20260509064539 | 41 | 64 | 1.7 | 1.7 | 0.00 | 0.01 | 0.01 | 96 | 1009.1 |
| 20260509064037 | 41 | 67 | 1.7 | 1.7 | 0.02 | 0.01 | 0.01 | 95 | 1009.2 |
| 20260509063531 | 41 | 44 | 1.7 | 1.7 | 0.02 | 0.01 | 0.01 | 95 | 1009.3 |
| 20260509063029 | 41 | 54 | 1.7 | 1.7 | 0.00 | 0.01 | 0.01 | 95 | 1009.3 |
| 20260509062526 | 41 | 41 | 0.9 | 1.7 | 0.02 | 0.01 | 0.01 | 94 | 1009.3 |
| 20260509062024 | 41 | 62 | 1.7 | 1.7 | 0.02 | 0.01 | 0.01 | 94 | 1009.5 |
| 20260509061520 | 41 | 56 | 1.7 | 2.6 | 0.00 | 0.00 | 0.00 | 93 | 1009.5 |
| 20260509061018 | 41 | 52 | 1.7 | 1.7 | 0.02 | 0.00 | 0.00 | 93 | 1009.8 |
| 20260509060515 | 41 | 72 | 1.7 | 1.7 | 0.02 | 0.00 | 0.00 | 93 | 1009.5 |
| 20260509060011 | 41 | 65 | 1.7 | 1.7 | 0.00 | 0.00 | 0.00 | 92 | 1009.6 |
| 20260509055506 | 41 | 63 | 1.7 | 1.7 | 0.00 | 0.00 | 0.00 | 92 | 1009.7 |
| 20260509055003 | 41 | 27 | 0.9 | 1.7 | 0.00 | 0.00 | 0.00 | 92 | 1009.8 |
| 20260509054459 | 41 | 61 | 1.7 | 2.6 | 0.00 | 0.00 | 0.00 | 92 | 1009.7 |
| 20260509053957 | 41 | 50 | 1.7 | 2.6 | 0.00 | 0.00 | 0.00 | 91 | 1009.8 |
| 20260509053455 | 41 | 43 | 2.6 | 2.6 | 0.00 | 0.00 | 0.00 | 91 | 1009.9 |
| 20260509052952 | 41 | 40 | 1.7 | 1.7 | 0.00 | 0.00 | 0.00 | 91 | 1009.7 |
| 20260509052450 | 41 | 65 | 1.7 | 2.6 | 0.00 | 0.00 | 0.00 | 92 | 1009.8 |
| 20260509051947 | 41 | 72 | 1.7 | 1.7 | 0.00 | 0.00 | 0.00 | 92 | 1009.8 |
| 20260509051445 | 41 | 55 | 1.7 | 1.7 | 0.00 | 0.00 | 0.00 | 92 | 1009.8 |
| 20260509050942 | 41 | 55 | 1.7 | 1.7 | 0.00 | 0.00 | 0.00 | 92 | 1009.7 |
| 20260509050438 | 41 | 55 | 1.7 | 1.7 | 0.00 | 0.00 | 0.00 | 92 | 1009.8 |
| 20260509045935 | 41 | 41 | 1.7 | 2.6 | 0.00 | 0.00 | 0.00 | 91 | 1009.6 |
| 20260509045432 | 41 | 45 | 1.7 | 2.6 | 0.00 | 0.00 | 0.00 | 91 | 1009.6 |
| 20260509044929 | 41 | 41 | 1.7 | 2.6 | 0.00 | 0.00 | 0.00 | 91 | 1009.9 |
| 20260509044427 | 41 | 61 | 1.7 | 2.6 | 0.00 | 0.00 | 0.00 | 90 | 1009.9 |
| 20260509043924 | 41 | 74 | 1.7 | 2.6 | 0.00 | 0.00 | 0.00 | 90 | 1009.9 |
| 20260509043419 | 41 | 42 | 1.7 | 1.7 | 0.00 | 0.00 | 0.00 | 91 | 1009.8 |
| 20260509042915 | 41 | 67 | 1.7 | 2.6 | 0.00 | 0.00 | 0.00 | 91 | 1010.0 |
| 20260509042413 | 41 | 65 | 1.7 | 1.7 | 0.00 | 0.00 | 0.00 | 91 | 1009.9 |
| 20260509041909 | 41 | 44 | 1.7 | 1.7 | 0.00 | 0.00 | 0.00 | 92 | 1010.2 |
| 20260509041406 | 41 | 60 | 1.7 | 1.7 | 0.00 | 0.00 | 0.00 | 93 | 1010.4 |
| 20260509040904 | 41 | 57 | 1.7 | 1.7 | 0.00 | 0.00 | 0.00 | 92 | 1010.0 |
| 20260509040402 | 41 | 92 | 1.7 | 2.6 | 0.00 | 0.00 | 0.00 | 92 | 1010.2 |
| 20260509035859 | 41 | 86 | 1.7 | 1.7 | 0.00 | 0.00 | 0.00 | 91 | 1010.0 |
| 20260509035356 | 41 | 74 | 1.7 | 1.7 | 0.00 | 0.00 | 0.00 | 91 | 1010.2 |
| 20260509034852 | 40 | 60 | 1.7 | 1.7 | 0.00 | 0.00 | 0.00 | 91 | 1010.1 |
| 20260509034350 | 40 | 78 | 1.7 | 1.7 | 0.00 | 0.00 | 0.00 | 90 | 1010.1 |
| 20260509033847 | 41 | 73 | 1.7 | 1.7 | 0.00 | 0.00 | 0.00 | 90 | 1010.0 |
| 20260509033344 | 41 | 48 | 1.7 | 1.7 | 0.00 | 0.00 | 0.00 | 89 | 1010.2 |
| 20260509032840 | 40 | 294 | 0.9 | 1.7 | 0.00 | 0.00 | 0.00 | 90 | 1010.0 |
| 20260509032337 | 40 | 30 | 0.9 | 1.7 | 0.00 | 0.00 | 0.00 | 91 | 1010.0 |
| 20260509031836 | 40 | 83 | 1.7 | 1.7 | 0.00 | 0.00 | 0.00 | 90 | 1010.0 |
| 20260509031332 | 40 | 85 | 1.7 | 1.7 | 0.00 | 0.00 | 0.00 | 89 | 1010.0 |
| 20260509030830 | 40 | 49 | 0.0 | 0.9 | 0.00 | 0.00 | 0.00 | 89 | 1010.0 |
| 20260509030327 | 40 | 67 | 0.9 | 1.7 | 0.00 | 0.00 | 0.00 | 88 | 1010.0 |
| 20260509025824 | 41 | 72 | 1.7 | 1.7 | 0.00 | 0.00 | 0.00 | 88 | 1010.1 |
| 20260509025320 | 41 | 58 | 1.7 | 1.7 | 0.00 | 0.00 | 0.00 | 88 | 1010.2 |
| 20260509024815 | 42 | 61 | 1.7 | 2.6 | 0.00 | 0.00 | 0.00 | 87 | 1010.2 |
| 20260509024312 | 42 | 79 | 0.9 | 0.9 | 0.00 | 0.00 | 0.00 | 85 | 1010.2 |
| 20260509023809 | 42 | 35 | 0.0 | 0.9 | 0.00 | 0.00 | 0.00 | 86 | 1010.0 |
| 20260509023306 | 42 | 13 | 0.0 | 0.9 | 0.00 | 0.00 | 0.00 | 85 | 1010.0 |
| 20260509022802 | 42 | 44 | 0.0 | 1.7 | 0.00 | 0.00 | 0.00 | 85 | 1010.0 |
| 20260509022300 | 43 | 81 | 1.7 | 1.7 | 0.00 | 0.00 | 0.00 | 84 | 1010.2 |
| 20260509021756 | 43 | 7 | 0.9 | 0.9 | 0.00 | 0.00 | 0.00 | 83 | 1010.1 |
| 20260509021254 | 43 | 47 | 0.9 | 2.6 | 0.00 | 0.00 | 0.00 | 83 | 1010.1 |
| 20260509020751 | 44 | 31 | 2.6 | 2.6 | 0.00 | 0.00 | 0.00 | 83 | 1010.0 |
| 20260509020249 | 44 | 84 | 1.7 | 1.7 | 0.00 | 0.00 | 0.00 | 80 | 1010.0 |
| 20260509015747 | 44 | 3 | 0.9 | 0.9 | 0.00 | 0.00 | 0.00 | 81 | 1010.1 |
| 20260509015245 | 45 | 21 | 0.0 | 1.7 | 0.00 | 0.00 | 0.00 | 79 | 1010.0 |
| 20260509014741 | 45 | 74 | 0.9 | 1.7 | 0.00 | 0.00 | 0.00 | 79 | 1009.9 |
| 20260509014238 | 45 | 41 | 1.7 | 1.7 | 0.00 | 0.00 | 0.00 | 79 | 1009.9 |
| 20260509013734 | 45 | 38 | 0.0 | 1.7 | 0.00 | 0.00 | 0.00 | 78 | 1010.0 |
| 20260509013230 | 45 | 63 | 1.7 | 2.6 | 0.00 | 0.00 | 0.00 | 78 | 1010.1 |
| 20260509012727 | 46 | 24 | 0.9 | 1.7 | 0.00 | 0.00 | 0.00 | 78 | 1010.0 |
| 20260509012223 | 46 | 61 | 1.7 | 2.6 | 0.00 | 0.00 | 0.00 | 78 | 1009.7 |
| 20260509011721 | 46 | 100 | 1.7 | 1.7 | 0.00 | 0.00 | 0.00 | 77 | 1009.9 |
| 20260509011219 | 46 | 51 | 1.7 | 2.6 | 0.00 | 0.00 | 0.00 | 78 | 1009.7 |
| 20260509010716 | 46 | 26 | 1.7 | 1.7 | 0.00 | 0.00 | 0.00 | 78 | 1009.8 |
| 20260509010212 | 46 | 84 | 1.7 | 2.6 | 0.00 | 0.00 | 0.00 | 77 | 1009.5 |
| 20260509005710 | 46 | 124 | 0.0 | 1.7 | 0.00 | 0.00 | 0.00 | 76 | 1009.6 |
| 20260509005207 | 46 | 73 | 1.7 | 1.7 | 0.00 | 0.00 | 0.00 | 75 | 1009.4 |
| 20260509004702 | 47 | 26 | 0.9 | 1.7 | 0.00 | 0.00 | 0.00 | 73 | 1009.4 |
| 20260509004159 | 47 | 44 | 0.0 | 1.7 | 0.00 | 0.00 | 0.00 | 73 | 1009.3 |
| 20260509003658 | 47 | 81 | 0.9 | 1.7 | 0.00 | 0.00 | 0.00 | 71 | 1009.1 |
| 20260509003155 | 48 | 52 | 0.9 | 1.7 | 0.00 | 0.00 | 0.00 | 69 | 1009.2 |
| 20260509002652 | 48 | 36 | 0.9 | 1.7 | 0.00 | 0.00 | 0.00 | 71 | 1009.0 |
| 20260509002149 | 49 | 36 | 0.0 | 0.9 | 0.00 | 0.00 | 0.00 | 70 | 1009.2 |
| 20260509001647 | 49 | 72 | 0.9 | 1.7 | 0.00 | 0.00 | 0.00 | 68 | 1009.2 |
| 20260509001142 | 49 | 38 | 0.0 | 0.0 | 0.00 | 0.00 | 0.00 | 67 | 1009.1 |
| 20260509000641 | 49 | 40 | 1.7 | 1.7 | 0.00 | 0.00 | 0.00 | 65 | 1008.8 |
| 20260509000137 | 49 | 45 | 2.6 | 2.6 | 0.00 | 0.00 | 0.00 | 65 | 1008.9 |
| 20260508235635 | 50 | 31 | 0.9 | 0.9 | 0.00 | 0.00 | 0.00 | 64 | 1008.8 |
| 20260508235131 | 50 | 52 | 0.9 | 0.9 | 0.00 | 0.00 | 0.00 | 63 | 1008.9 |
| 20260508234629 | 51 | 59 | 1.7 | 1.7 | 0.00 | 0.00 | 0.00 | 62 | 1008.9 |
| 20260508234125 | 51 | 352 | 0.0 | 0.9 | 0.00 | 0.00 | 0.00 | 64 | 1008.6 |
| 20260508233624 | 51 | 355 | 0.9 | 1.7 | 0.00 | 0.00 | 0.00 | 64 | 1008.7 |
| 20260508233122 | 51 | 358 | 0.9 | 1.7 | 0.00 | 0.00 | 0.00 | 63 | 1008.7 |
| 20260508232618 | 51 | 24 | 0.9 | 1.7 | 0.00 | 0.00 | 0.00 | 63 | 1008.5 |
| 20260508232115 | 51 | 350 | 0.0 | 1.7 | 0.00 | 0.00 | 0.00 | 62 | 1008.4 |
| 20260508231613 | 52 | 31 | 1.7 | 1.7 | 0.00 | 0.00 | 0.00 | 61 | 1008.5 |
| 20260508231109 | 52 | 12 | 0.0 | 0.0 | 0.00 | 0.00 | 0.00 | 61 | 1008.7 |
| 20260508230606 | 52 | 315 | 0.0 | 0.9 | 0.00 | 0.00 | 0.00 | 61 | 1008.4 |
| 20260508225601 | 55 | 60 | 0.0 | 0.9 | 0.00 | 0.00 | 0.00 | 46 | 1008.4 |
| 20260508225057 | 54 | 94 | 0.9 | 1.7 | 0.00 | 0.00 | 0.00 | 47 | 1008.6 |
| 20260508224555 | 55 | 47 | 1.7 | 2.6 | 0.00 | 0.00 | 0.00 | 48 | 1008.6 |
| 20260508224051 | 54 | 77 | 1.7 | 2.6 | 0.00 | 0.00 | 0.00 | 49 | 1008.6 |
| 20260508223549 | 54 | 48 | 1.7 | 1.7 | 0.00 | 0.00 | 0.00 | 53 | 1008.6 |
| 20260508223046 | 55 | 352 | 0.0 | 1.7 | 0.00 | 0.00 | 0.00 | 52 | 1008.5 |
| 20260508222544 | 56 | 74 | 1.7 | 2.6 | 0.00 | 0.00 | 0.00 | 49 | 1008.6 |
| 20260508222041 | 56 | 31 | 3.5 | 3.5 | 0.00 | 0.00 | 0.00 | 48 | 1008.6 |
| 20260508221537 | 55 | 34 | 1.7 | 2.6 | 0.00 | 0.00 | 0.00 | 51 | 1008.5 |
| 20260508221033 | 55 | 61 | 1.7 | 2.6 | 0.00 | 0.00 | 0.00 | 50 | 1008.5 |
| 20260508220530 | 55 | 38 | 2.6 | 3.5 | 0.00 | 0.00 | 0.00 | 49 | 1008.8 |
| 20260508220026 | 55 | 81 | 2.6 | 2.6 | 0.00 | 0.00 | 0.00 | 47 | 1008.6 |
| 20260508215523 | 55 | 36 | 1.7 | 3.5 | 0.00 | 0.00 | 0.00 | 49 | 1008.7 |
| 20260508215020 | 55 | 31 | 1.7 | 1.7 | 0.00 | 0.00 | 0.00 | 54 | 1008.6 |
| 20260508214517 | 55 | 57 | 1.7 | 2.6 | 0.00 | 0.00 | 0.00 | 49 | 1008.7 |
| 20260508214013 | 54 | 17 | 3.5 | 3.5 | 0.00 | 0.00 | 0.00 | 48 | 1008.6 |
| 20260508213511 | 55 | 70 | 1.7 | 2.6 | 0.00 | 0.00 | 0.00 | 47 | 1008.6 |
| 20260508213006 | 55 | 39 | 1.7 | 4.3 | 0.00 | 0.00 | 0.00 | 47 | 1008.6 |
| 20260508212503 | 55 | 42 | 2.6 | 7.0 | 0.00 | 0.00 | 0.00 | 50 | 1008.6 |
| 20260508211959 | 55 | 12 | 2.6 | 2.6 | 0.00 | 0.00 | 0.00 | 48 | 1008.8 |
| 20260508211455 | 57 | 335 | 0.0 | 5.2 | 0.00 | 0.00 | 0.00 | 48 | 1008.8 |
| 20260508210952 | 56 | 34 | 3.5 | 7.0 | 0.00 | 0.00 | 0.00 | 47 | 1008.9 |
| 20260508210448 | 57 | 7 | 1.7 | 4.3 | 0.00 | 0.00 | 0.00 | 44 | 1008.7 |
| 20260508205945 | 58 | 155 | 1.7 | 2.6 | 0.00 | 0.00 | 0.00 | 42 | 1008.7 |
| 20260508205442 | 57 | 58 | 1.7 | 3.5 | 0.00 | 0.00 | 0.00 | 44 | 1008.8 |
| 20260508204938 | 56 | 31 | 1.7 | 3.5 | 0.00 | 0.00 | 0.00 | 46 | 1008.9 |
| 20260508204436 | 55 | 14 | 3.5 | 3.5 | 0.00 | 0.00 | 0.00 | 48 | 1009.0 |
| 20260508203931 | 56 | 101 | 2.6 | 5.2 | 0.00 | 0.00 | 0.00 | 47 | 1009.0 |
| 20260508203427 | 58 | 330 | 2.6 | 5.2 | 0.00 | 0.00 | 0.00 | 45 | 1008.9 |
| 20260508202923 | 56 | 47 | 1.7 | 2.6 | 0.00 | 0.00 | 0.00 | 46 | 1009.1 |
| 20260508202421 | 55 | 85 | 3.5 | 4.3 | 0.00 | 0.00 | 0.00 | 48 | 1009.0 |
| 20260508201918 | 55 | 67 | 4.3 | 4.3 | 0.00 | 0.00 | 0.00 | 47 | 1009.1 |
| 20260508201414 | 56 | 10 | 4.3 | 7.0 | 0.00 | 0.00 | 0.00 | 46 | 1009.2 |
| 20260508200911 | 57 | 48 | 3.5 | 5.2 | 0.00 | 0.00 | 0.00 | 45 | 1009.4 |
| 20260508200408 | 56 | 42 | 1.7 | 6.1 | 0.00 | 0.00 | 0.00 | 46 | 1009.2 |
| 20260508195903 | 57 | 300 | 4.3 | 4.3 | 0.00 | 0.00 | 0.00 | 47 | 1009.4 |
| 20260508195400 | 55 | 339 | 2.6 | 4.3 | 0.00 | 0.00 | 0.00 | 50 | 1009.4 |
| 20260508194856 | 55 | 258 | 4.3 | 5.2 | 0.00 | 0.00 | 0.00 | 45 | 1009.5 |
| 20260508194354 | 57 | 276 | 0.9 | 5.2 | 0.00 | 0.00 | 0.00 | 44 | 1009.6 |
| 20260508193851 | 56 | 55 | 1.7 | 7.8 | 0.00 | 0.00 | 0.00 | 46 | 1009.6 |
| 20260508193348 | 57 | 356 | 2.6 | 5.2 | 0.00 | 0.00 | 0.00 | 45 | 1009.7 |
| 20260508192844 | 57 | 21 | 1.7 | 5.2 | 0.00 | 0.00 | 0.00 | 49 | 1009.5 |
| 20260508192341 | 56 | 72 | 2.6 | 2.6 | 0.00 | 0.00 | 0.00 | 54 | 1009.8 |
| 20260508191838 | 56 | 58 | 3.5 | 4.3 | 0.00 | 0.00 | 0.00 | 50 | 1009.8 |
| 20260508191335 | 53 | 266 | 7.8 | 10.4 | 0.00 | 0.00 | 0.00 | 48 | 1010.0 |
| 20260508190832 | 55 | 88 | 3.5 | 5.2 | 0.00 | 0.00 | 0.00 | 47 | 1009.7 |
| 20260508190329 | 52 | 321 | 2.6 | 6.1 | 0.00 | 0.00 | 0.00 | 50 | 1009.9 |
| 20260508185825 | 53 | 63 | 5.2 | 5.2 | 0.00 | 0.00 | 0.00 | 54 | 1010.0 |
| 20260508185323 | 51 | 15 | 1.7 | 4.3 | 0.00 | 0.00 | 0.00 | 53 | 1010.1 |
| 20260508184820 | 53 | 285 | 3.5 | 7.8 | 0.00 | 0.00 | 0.00 | 54 | 1010.1 |
| 20260508184317 | 52 | 126 | 1.7 | 4.3 | 0.00 | 0.00 | 0.00 | 55 | 1010.4 |
| 20260508183814 | 53 | 29 | 4.3 | 6.1 | 0.00 | 0.00 | 0.00 | 54 | 1010.4 |
| 20260508183310 | 54 | 6 | 2.6 | 5.2 | 0.00 | 0.00 | 0.00 | 56 | 1010.6 |
| 20260508182806 | 53 | 357 | 1.7 | 4.3 | 0.00 | 0.00 | 0.00 | 55 | 1010.4 |
| 20260508182306 | 50 | 45 | 3.5 | 6.1 | 0.00 | 0.00 | 0.00 | 57 | 1010.6 |
| 20260508181759 | 50 | 44 | 2.6 | 3.5 | 0.00 | 0.00 | 0.00 | 60 | 1010.5 |
| 20260508181256 | 52 | 291 | 9.6 | 11.3 | 0.00 | 0.00 | 0.00 | 58 | 1010.5 |
| 20260508180753 | 52 | 29 | 3.5 | 5.2 | 0.00 | 0.00 | 0.00 | 62 | 1010.5 |
| 20260508180250 | 50 | 27 | 0.0 | 5.2 | 0.00 | 0.00 | 0.00 | 61 | 1010.8 |
| 20260508175746 | 50 | 39 | 3.5 | 5.2 | 0.00 | 0.00 | 0.00 | 62 | 1010.5 |
| 20260508175243 | 50 | 2 | 1.7 | 3.5 | 0.00 | 0.00 | 0.00 | 64 | 1010.6 |
| 20260508174741 | 50 | 17 | 3.5 | 5.2 | 0.00 | 0.00 | 0.00 | 62 | 1010.6 |
| 20260508174238 | 51 | 40 | 3.5 | 4.3 | 0.00 | 0.00 | 0.00 | 63 | 1010.6 |
| 20260508173734 | 50 | 5 | 4.3 | 9.6 | 0.00 | 0.00 | 0.00 | 66 | 1010.6 |